Weather History for Green Bay, WI

Change the Weather History Date:

Wednesday, March 13, 2013

  Actual Average Record
Temperature  
Mean Temperature 27 °F 30 °F  
Max Temperature 34 °F 38 °F 70 °F (1995)
Min Temperature 20 °F 21 °F -5 °F (1956)
Degree Days  
Heating Degree Days 38 36  
Month to date heating degree days 525 493  
Since 1 July heating degree days 5968 6333  
Cooling Degree Days 0 0  
Month to date cooling degree days 0 0  
Year to date cooling degree days 0 0  
Moisture  
Dew Point 12 °F    
Average Humidity 60    
Maximum Humidity 84    
Minimum Humidity 35    
Precipitation  
Precipitation 0.00 in 0.05 in 1.02 in (1990)
Month to date precipitation 1.22 0.73  
Year to date precipitation 5.88 2.97  
Snow  
Snow 0.00 in 0.30 in 13.00 in (1997)
Month to date snowfall 0.5 4.3  
Since 1 July snowfall 58.5 44.5  
Snow Depth 4.00 in    
Sea Level Pressure  
Sea Level Pressure 30.18 in    
Wind  
Wind Speed 12 mph (WNW)    
Max Wind Speed 21 mph    
Max Gust Speed 28 mph    
Visibility 10 miles    
Events      
T = Trace of Precipitation, MM = Missing Value Source: NWS Daily Summary

Daily Weather History Graph

Daily Weather History Graph

Search for Another Location

Airport:

Trip Planner

Search our weather history database for the weather conditions in past years. The results will help you decide how hot, cold, wet, or windy it might be!

Date:

Astronomy

Mar. 13, 2013 Rise Set
Actual Time 7:08 AM CDT 6:56 PM CDT
Civil Twilight 6:39 AM CDT 7:25 PM CDT
Nautical Twilight 6:05 AM CDT 7:59 PM CDT
Astronomical Twilight 5:31 AM CDT 8:33 PM CDT
Moon 7:41 AM CDT (3/13) 9:20 PM CDT (3/13)
Length of Visible Light 12h 46m
Length of Day
11h 48m
Waxing Crescent, 4% of the Moon is Illuminated
Mar 13
Waxing Crescent
Mar 19
First Quarter
Mar 27
Full
Apr 2
Last Quarter
Apr 10
New

Hourly Weather History & Observations

Time (CDT) Temp. Windchill Dew Point Humidity Pressure Visibility Wind Dir Wind Speed Gust Speed Precip Events Conditions
12:53 AM 21.9 °F 9.2 °F 14.0 °F 72% 30.01 in 10.0 mi NW 13.8 mph - N/A   Overcast
1:53 AM 21.2 °F 7.8 °F 15.8 °F 80% 29.99 in 10.0 mi WNW 15.0 mph - N/A   Overcast
2:53 AM 21.0 °F 8.1 °F 15.1 °F 78% 30.04 in 10.0 mi NW 13.8 mph - N/A   Overcast
3:53 AM 21.0 °F 8.1 °F 14.0 °F 74% 30.05 in 10.0 mi NW 13.8 mph - N/A   Clear
4:53 AM 19.9 °F 7.3 °F 15.1 °F 81% 30.08 in 10.0 mi WNW 12.7 mph - N/A   Clear
5:53 AM 19.9 °F 7.9 °F 12.9 °F 74% 30.10 in 10.0 mi WNW 11.5 mph - N/A   Clear
6:53 AM 19.9 °F 7.3 °F 12.0 °F 71% 30.12 in 10.0 mi WNW 12.7 mph - N/A   Mostly Cloudy
7:53 AM 19.9 °F 7.9 °F 12.0 °F 71% 30.14 in 10.0 mi NW 11.5 mph - N/A   Mostly Cloudy
8:53 AM 21.0 °F 8.1 °F 10.9 °F 65% 30.17 in 10.0 mi NW 13.8 mph - N/A   Clear
9:53 AM 21.9 °F 7.8 °F 10.9 °F 63% 30.19 in 10.0 mi NW 17.3 mph - N/A   Mostly Cloudy
10:53 AM 25.0 °F 11.7 °F 10.0 °F 53% 30.22 in 10.0 mi NNW 17.3 mph 27.6 mph N/A   Clear
11:53 AM 27.0 °F 14.3 °F 9.0 °F 47% 30.22 in 10.0 mi NW 17.3 mph - N/A   Clear
12:53 PM 28.9 °F 18.2 °F 10.0 °F 45% 30.23 in 10.0 mi NW 13.8 mph - N/A   Clear
1:53 PM 30.9 °F 20.7 °F 9.0 °F 40% 30.23 in 10.0 mi NW 13.8 mph - N/A   Clear
2:53 PM 33.1 °F 24.4 °F 8.1 °F 35% 30.23 in 10.0 mi NW 11.5 mph - N/A   Clear
3:53 PM 33.1 °F 24.4 °F 12.9 °F 43% 30.24 in 10.0 mi West 11.5 mph - N/A   Clear
4:53 PM 34.0 °F 25.5 °F 12.0 °F 40% 30.25 in 10.0 mi West 11.5 mph - N/A   Clear
5:53 PM 33.1 °F 24.4 °F 12.0 °F 42% 30.25 in 10.0 mi West 11.5 mph - N/A   Clear
6:53 PM 30.9 °F 22.8 °F 14.0 °F 50% 30.26 in 10.0 mi West 9.2 mph - N/A   Clear
7:53 PM 28.9 °F 21.9 °F 15.1 °F 56% 30.26 in 10.0 mi West 6.9 mph - N/A   Clear
8:53 PM 28.0 °F 17.5 °F 12.9 °F 53% 30.28 in 10.0 mi West 12.7 mph - N/A   Clear
9:53 PM 27.0 °F 17.3 °F 12.9 °F 56% 30.28 in 10.0 mi West 10.4 mph - N/A   Clear
10:53 PM 26.1 °F 16.2 °F 12.0 °F 55% 30.28 in 10.0 mi West 10.4 mph - N/A   Clear
11:53 PM 25.0 °F 15.5 °F 10.9 °F 55% 30.29 in 10.0 mi West 9.2 mph - N/A   Clear